#timestamp,LO_Frequency,Hit,StdDev 
1457658015.4,286047004.2,N
1457658035.3,286047003.3,N
1457658055.1,286047003.0,N
1457658056.0,286047003.0,N
1457658075.8,286047005.6,N
1457658095.7,286047003.0,N
1457658115.5,286047001.3,N
1457658135.3,286046998.6,N
1457658155.2,286046996.3,N
1457658175.9,286046997.0,N
1457658195.7,286047001.2,N
1457658215.6,286046997.2,N
1457658235.4,286046998.7,N
1457658255.2,286047001.7,N
1457658275.0,286046998.4,N
1457658276.0,286046998.4,N
1457658295.8,286046999.4,N
1457658315.6,286046999.4,N
1457658335.4,286046998.7,N
1457658355.3,286046996.7,N
1457658375.1,286046996.9,N
1457658395.8,286046995.2,N
1457658415.7,286046997.5,N
1457658435.5,286046994.0,N
1457658455.3,286046994.2,N
1457658475.2,286046993.2,N
1457658495.9,286046994.8,N
1457658515.7,286046992.7,N
1457658535.6,286046994.2,N
1457658555.4,286046995.9,N
1457658575.2,286046993.8,N
1457658595.1,286046994.2,N
1457658596.0,286046994.2,N
1457658615.8,286046994.9,N
1457658635.6,286046994.9,N
1457658655.4,286046996.4,N
1457658675.3,286046995.9,N
1457658695.1,286046994.6,N
1457658715.8,286046997.7,N
1457658735.7,286046997.4,N
1457658755.5,286046996.4,N
1457658775.3,286046993.6,Y
1457658795.2,286046996.7,P
1457658815.0,286046998.7,P
1457658815.9,286046998.7,N
1457658835.7,286047002.8,N
1457658855.6,286047002.5,N
1457658875.4,286046995.4,N
1457658895.2,286046997.2,N
1457658915.1,286046997.5,N
1457658916.0,286046997.5,N
1457658935.8,286046994.4,N
1457658955.6,286046996.4,N
1457658975.5,286046991.8,Y
1457658995.3,286046995.9,P
1457659015.1,286046993.8,P
1457659035.9,286046994.9,P
1457659055.7,286046997.5,N
1457659075.5,286046994.1,Y
1457659095.4,286046998.3,P
1457659115.2,286046996.5,P
1457659135.0,286046999.0,N
1457659135.9,286046999.0,N
1457659155.8,286046998.8,N
1457659175.6,286046998.9,N
1457659195.4,286047000.4,N
1457659215.3,286047000.0,N
1457659235.1,286047000.2,N
1457659236.0,286047000.2,N
1457659255.8,286046998.1,N
1457659275.6,286047000.4,N
1457659295.5,286046996.6,N
1457659315.3,286046994.9,Y
1457659335.1,286046998.4,P
1457659355.9,286047000.0,N
1457659375.7,286047000.2,N
1457659395.5,286047000.2,N
1457659415.4,286047001.2,N
1457659435.2,286047000.1,N
1457659455.0,286047002.7,Y
1457659455.9,286047002.7,P
1457659475.8,286046998.6,N
1457659495.6,286046998.1,N
1457659515.4,286046997.3,N
1457659535.3,286046999.0,N
1457659555.1,286046997.2,N
1457659575.8,286046998.9,N
1457659595.7,286047000.5,N
1457659615.5,286047002.5,N
1457659635.3,286047003.0,N
1457659655.2,286047005.3,N
1457659675.9,286047004.9,N
1457659695.7,286047006.9,N
1457659715.5,286047006.5,N
1457659735.4,286047003.2,N
1457659755.2,286047005.5,N
1457659775.0,286047003.0,N
1457659775.9,286047003.0,N
1457659795.8,286047002.6,N
1457659815.6,286047002.1,N
1457659835.4,286046998.1,N
1457659855.3,286047002.7,N
1457659875.1,286047001.7,N
1457659895.8,286047006.0,N
1457659915.7,286047003.2,N
1457659935.5,286047004.1,N
1457659955.3,286047005.5,N
1457659975.2,286047003.1,N
1457659995.9,286047005.1,N
1457660015.7,286047007.0,N
1457660035.6,286047005.0,N
1457660055.4,286047003.1,N
1457660075.2,286047005.2,N
1457660095.0,286047005.2,N
1457660095.9,286047005.2,N
1457660115.8,286047003.6,N
1457660135.6,286047003.5,N
1457660155.4,286047006.1,Y
1457660175.3,286047002.6,P
1457660195.1,286046999.2,N
1457660215.8,286046998.9,N
1457660235.7,286046997.7,N
1457660255.5,286046996.1,N
1457660275.3,286046993.6,N
1457660295.2,286046993.0,N
1457660315.9,286046994.7,N
1457660335.7,286046994.8,N
1457660355.6,286046992.8,N
1457660375.4,286046989.3,N
1457660395.2,286046990.6,N
1457660415.0,286046991.1,N
1457660416.0,286046991.1,N
1457660435.8,286046988.8,N
1457660455.6,286046989.8,N
1457660475.5,286046983.9,Y
1457660495.3,286046991.0,P
1457660515.1,286046990.9,P
1457660535.8,286046992.0,P
1457660555.7,286046992.9,Y
1457660575.5,286047001.1,P
1457660595.4,286047000.7,N
1457660615.2,286047001.0,N
1457660635.0,286047000.1,N
1457660635.9,286047000.1,N
1457660655.7,286047000.1,N
1457660675.6,286047002.2,N
1457660695.4,286047000.6,N
1457660715.2,286047005.8,N
1457660735.1,286047004.1,N
1457660736.0,286047004.1,N
1457660755.8,286047003.6,N
1457660775.6,286047001.8,N
1457660795.5,286047000.1,N
1457660815.3,286047000.0,N
1457660835.1,286047000.9,N
1457660855.9,286047000.3,N
1457660875.7,286047002.2,N
1457660895.5,286047003.9,N
1457660915.4,286047005.8,N
1457660935.2,286047003.0,N
1457660955.0,286047002.5,N
1457660955.9,286047002.5,N
1457660975.7,286047000.3,N
1457660995.6,286047002.3,N
1457661015.4,286047000.7,N
1457661035.2,286047001.1,N
1457661055.1,286047001.2,N
1457661056.0,286047001.2,N
1457661075.8,286046999.6,N
1457661095.6,286046997.4,N
1457661115.5,286046999.0,N
1457661135.3,286047000.8,N
1457661155.1,286047000.6,N
1457661175.9,286047000.3,N
1457661195.7,286047004.2,N
1457661215.5,286047005.9,Y
1457661235.4,286047002.7,P
1457661255.2,286046998.9,N
1457661275.0,286046999.5,N
1457661275.9,286046999.5,N
1457661295.8,286046995.9,N
1457661315.6,286046995.8,N
1457661335.4,286046995.4,N
1457661355.3,286046995.7,N
1457661375.1,286046994.3,N
1457661376.0,286046994.3,N
1457661395.8,286046993.8,N
1457661415.7,286046995.9,N
1457661435.5,286046997.6,N
1457661455.3,286046998.8,N
1457661475.1,286046998.1,N
1457661495.9,286046999.5,N
1457661515.7,286046997.4,N
1457661535.5,286046998.9,N
1457661555.4,286046999.2,N
1457661575.2,286046996.8,N
1457661595.0,286046995.0,N
1457661595.9,286046995.0,N
